Location: Helsinki
(60.1699°N, 24.9384°E)
Time: 22:18:13
(UTC+02:00)

A-11 Canister half - Pass Details

Date: 01 November 2020
Orbit: 1516 x 1684 km, 47.2° (Epoch: 26 November)

Event Time Altitude Azimuth Distance (km) Brightness Sun altitude
Rises 21:09:09 0° 237° (WSW) 4,932 11.9 -34.7°
Reaches altitude 10° 21:12:38 10° 230° (SW) 3,937 11.2 -35.0°
Enters shadow 21:17:51 29° 205° (SSW) 2,715 10.1 -35.5°
Maximum altitude 21:21:30 37° 168° (SSE) 2,374 - -35.9°
Drops below altitude 10° 21:30:11 10° 106° (ESE) 3,848 - -36.7°
Sets 21:33:32 0° 99° (E) 4,811 - -37.0°
